When you browse on this site, cookies collect data to enhance your experience and personalize the content and advertising you see.
Visit our Privacy Policy to learn more. By continuing to use the site, you agree to this use of cookies and data.
  • In United Kingdom
  • List of Countries
  • For 7 days
  • Water Temperature
  • Satellite Maps
  • Weather Map
  • Weather Widgets
  • user-avatar
    Login

    Hourly Weather Raalte

    Today, 25 June, Tuesday

    Time Temperature Precipitation Wind Pressure Humidity
    00:00 +22°C° 0 mm 3 mps 763 mmHg 86%
    01:00 +22°C° 0.1 mm 3 mps 763 mmHg 86%
    02:00 +23°C° 0.1 mm 2 mps 763 mmHg 86%
    03:00 +21°C° 0.1 mm 2 mps 762 mmHg 87%
    04:00 +23°C° 0 mm 2 mps 762 mmHg 85%
    05:00 +24°C° 0 mm 2 mps 762 mmHg 83%
    06:00 +25°C° 0 mm 2 mps 762 mmHg 81%
    07:00 +27°C° 0 mm 3 mps 762 mmHg 75%
    08:00 +28°C° 0 mm 3 mps 762 mmHg 69%
    09:00 +30°C° 0 mm 4 mps 762 mmHg 64%
    10:00 +32°C° 0 mm 4 mps 762 mmHg 60%
    11:00 +33°C° 0 mm 4 mps 762 mmHg 57%
    12:00 +34°C° 0 mm 4 mps 762 mmHg 54%
    13:00 +34°C° 0 mm 4 mps 762 mmHg 54%
    14:00 +35°C° 0 mm 4 mps 762 mmHg 53%
    15:00 +35°C° 0 mm 4 mps 761 mmHg 53%
    16:00 +35°C° 0 mm 3 mps 762 mmHg 57%
    17:00 +34°C° 0 mm 3 mps 762 mmHg 62%
    18:00 +32°C° 0 mm 2 mps 762 mmHg 66%
    19:00 +30°C° 0 mm 3 mps 762 mmHg 72%
    20:00 +28°C° 0 mm 3 mps 763 mmHg 78%
    21:00 +26°C° 0 mm 3 mps 763 mmHg 84%
    22:00 +25°C° 0 mm 3 mps 764 mmHg 86%
    23:00 +24°C° 0 mm 3 mps 764 mmHg 89%

    Tomorrow, 26 June, Wednesday

    Time Temperature Precipitation Wind Pressure Humidity
    00:00 +22°C° 0 mm 3 mps 764 mmHg 91%
    01:00 +21°C° 0 mm 3 mps 764 mmHg 93%
    02:00 +21°C° 0 mm 3 mps 765 mmHg 95%
    03:00 +20°C° 0 mm 3 mps 765 mmHg 97%
    04:00 +20°C° 0 mm 3 mps 765 mmHg 94%
    05:00 +20°C° 0 mm 3 mps 766 mmHg 92%
    06:00 +20°C° 0 mm 4 mps 766 mmHg 89%
    07:00 +21°C° 0 mm 4 mps 767 mmHg 87%
    08:00 +21°C° 0 mm 4 mps 767 mmHg 84%
    09:00 +22°C° 0 mm 4 mps 767 mmHg 82%
    10:00 +22°C° 0 mm 5 mps 768 mmHg 80%
    11:00 +22°C° 0 mm 5 mps 768 mmHg 78%
    12:00 +23°C° 0 mm 5 mps 768 mmHg 76%
    13:00 +22°C° 0 mm 5 mps 769 mmHg 76%
    14:00 +22°C° 0 mm 5 mps 769 mmHg 76%
    15:00 +22°C° 0 mm 5 mps 769 mmHg 76%
    16:00 +21°C° 0 mm 5 mps 769 mmHg 77%
    17:00 +20°C° 0 mm 5 mps 769 mmHg 78%
    18:00 +19°C° 0 mm 5 mps 769 mmHg 78%
    19:00 +17°C° 0 mm 4 mps 770 mmHg 81%
    20:00 +15°C° 0 mm 4 mps 770 mmHg 83%
    21:00 +14°C° 0 mm 4 mps 770 mmHg 85%
    22:00 +14°C° 0 mm 3 mps 771 mmHg 84%
    23:00 +14°C° 0 mm 3 mps 771 mmHg 82%

    Day after tomorrow, 27 June, Thursday

    Time Temperature Precipitation Wind Pressure Humidity
    00:00 +13°C° 0 mm 3 mps 771 mmHg 81%
    01:00 +12°C° 0 mm 3 mps 771 mmHg 85%
    02:00 +12°C° 0 mm 2 mps 771 mmHg 89%
    03:00 +10°C° 0 mm 2 mps 770 mmHg 93%
    04:00 +11°C° 0 mm 3 mps 771 mmHg 87%
    05:00 +12°C° 0 mm 3 mps 771 mmHg 81%
    06:00 +13°C° 0 mm 3 mps 771 mmHg 76%
    07:00 +16°C° 0 mm 3 mps 771 mmHg 73%
    08:00 +18°C° 0 mm 3 mps 771 mmHg 70%
    09:00 +19°C° 0 mm 3 mps 771 mmHg 67%
    10:00 +20°C° 0 mm 4 mps 771 mmHg 66%
    11:00 +20°C° 0 mm 4 mps 771 mmHg 65%
    12:00 +21°C° 0 mm 4 mps 770 mmHg 65%
    13:00 +21°C° 0 mm 4 mps 770 mmHg 65%
    14:00 +21°C° 0 mm 4 mps 770 mmHg 65%
    15:00 +21°C° 0 mm 4 mps 770 mmHg 65%
    16:00 +20°C° 0 mm 4 mps 770 mmHg 69%
    17:00 +19°C° 0 mm 4 mps 770 mmHg 73%
    18:00 +17°C° 0 mm 5 mps 770 mmHg 77%
    19:00 +15°C° 0 mm 4 mps 770 mmHg 83%
    20:00 +14°C° 0 mm 3 mps 770 mmHg 88%
    21:00 +12°C° 0 mm 3 mps 770 mmHg 94%
    22:00 +12°C° 0 mm 2 mps 770 mmHg 94%
    23:00 +12°C° 0 mm 2 mps 770 mmHg 95%

    28 June, Friday

    Time Temperature Precipitation Wind Pressure Humidity
    00:00 +12°C° 0 mm 2 mps 770 mmHg 95%
    01:00 +12°C° 0 mm 2 mps 770 mmHg 95%
    02:00 +10°C° 0 mm 2 mps 770 mmHg 96%
    03:00 +11°C° 0 mm 1 mps 769 mmHg 96%
    04:00 +12°C° 0 mm 2 mps 769 mmHg 92%
    05:00 +14°C° 0 mm 2 mps 769 mmHg 88%
    06:00 +15°C° 0 mm 2 mps 769 mmHg 84%
    07:00 +16°C° 0 mm 2 mps 769 mmHg 76%
    08:00 +18°C° 0 mm 2 mps 769 mmHg 69%
    09:00 +20°C° 0 mm 3 mps 769 mmHg 62%
    10:00 +21°C° 0 mm 3 mps 769 mmHg 59%
    11:00 +22°C° 0 mm 3 mps 769 mmHg 56%
    12:00 +24°C° 0 mm 3 mps 769 mmHg 53%
    13:00 +24°C° 0 mm 3 mps 768 mmHg 54%
    14:00 +24°C° 0 mm 3 mps 768 mmHg 55%
    15:00 +23°C° 0 mm 4 mps 768 mmHg 55%
    16:00 +22°C° 0 mm 4 mps 768 mmHg 61%
    17:00 +21°C° 0 mm 3 mps 768 mmHg 66%
    18:00 +20°C° 0 mm 3 mps 767 mmHg 71%
    19:00 +18°C° 0 mm 3 mps 768 mmHg 78%
    20:00 +16°C° 0 mm 3 mps 768 mmHg 86%
    21:00 +13°C° 0 mm 3 mps 768 mmHg 93%
    22:00 +12°C° 0 mm 3 mps 768 mmHg 93%
    23:00 +13°C° 0 mm 2 mps 767 mmHg 93%

    29 June, Saturday

    Time Temperature Precipitation Wind Pressure Humidity
    00:00 +12°C° 0 mm 2 mps 767 mmHg 93%
    01:00 +12°C° 0 mm 2 mps 767 mmHg 93%
    02:00 +12°C° 0 mm 2 mps 766 mmHg 93%
    03:00 +10°C° 0 mm 2 mps 766 mmHg 92%
    04:00 +13°C° 0 mm 2 mps 766 mmHg 88%
    05:00 +14°C° 0 mm 2 mps 766 mmHg 83%
    06:00 +15°C° 0 mm 2 mps 766 mmHg 78%
    07:00 +17°C° 0 mm 3 mps 765 mmHg 71%
    08:00 +20°C° 0 mm 3 mps 765 mmHg 64%
    09:00 +22°C° 0 mm 3 mps 765 mmHg 57%
    10:00 +24°C° 0 mm 3 mps 764 mmHg 54%
    11:00 +26°C° 0 mm 3 mps 764 mmHg 50%
    12:00 +27°C° 0 mm 3 mps 764 mmHg 46%
    13:00 +28°C° 0 mm 3 mps 763 mmHg 46%
    14:00 +28°C° 0 mm 3 mps 763 mmHg 46%
    15:00 +29°C° 0 mm 3 mps 762 mmHg 45%
    16:00 +28°C° 0 mm 3 mps 762 mmHg 51%
    17:00 +28°C° 0 mm 3 mps 761 mmHg 56%
    18:00 +27°C° 0 mm 3 mps 761 mmHg 62%
    19:00 +25°C° 0 mm 3 mps 761 mmHg 66%
    20:00 +22°C° 0 mm 3 mps 761 mmHg 70%
    21:00 +21°C° 0 mm 3 mps 761 mmHg 74%
    22:00 +20°C° 0 mm 3 mps 760 mmHg 70%
    23:00 +20°C° 0 mm 3 mps 760 mmHg 67%

    30 June, Sunday

    Time Temperature Precipitation Wind Pressure Humidity
    00:00 +20°C° 0 mm 3 mps 759 mmHg 64%
    01:00 +19°C° 0 mm 3 mps 759 mmHg 64%
    02:00 +19°C° 0 mm 3 mps 759 mmHg 65%
    03:00 +19°C° 0 mm 3 mps 758 mmHg 65%
    04:00 +19°C° 0 mm 4 mps 758 mmHg 67%
    05:00 +20°C° 0 mm 4 mps 758 mmHg 69%
    06:00 +21°C° 0 mm 4 mps 758 mmHg 72%
    07:00 +23°C° 0 mm 4 mps 758 mmHg 72%
    08:00 +25°C° 0 mm 5 mps 759 mmHg 72%
    09:00 +27°C° 0 mm 5 mps 759 mmHg 72%
    10:00 +27°C° 0 mm 5 mps 759 mmHg 68%
    11:00 +26°C° 0 mm 5 mps 759 mmHg 64%
    12:00 +26°C° 0 mm 5 mps 760 mmHg 59%
    13:00 +26°C° 0 mm 6 mps 760 mmHg 60%
    14:00 +24°C° 0 mm 6 mps 760 mmHg 61%
    15:00 +24°C° 0 mm 6 mps 760 mmHg 62%
    16:00 +23°C° 0 mm 5 mps 761 mmHg 65%
    17:00 +22°C° 0 mm 5 mps 761 mmHg 68%
    18:00 +21°C° 0 mm 4 mps 761 mmHg 71%
    19:00 +19°C° 0 mm 4 mps 761 mmHg 77%
    20:00 +17°C° 0 mm 3 mps 761 mmHg 83%
    21:00 +15°C° 0 mm 2 mps 762 mmHg 90%
    22:00 +15°C° 0 mm 2 mps 762 mmHg 91%
    23:00 +15°C° 0 mm 2 mps 762 mmHg 92%
    Show more